• In United Kingdom
  • List of Countries
  • For 7 days
  • Water Temperature
  • Satellite Maps
  • Weather Map
  • Weather Widgets
  • user-avatar
    Login

    Hourly Weather Herāt

    Today, 19 October, Friday

    Time Temperature Precipitation Wind Pressure Humidity
    00:00 +10°C° 0 mm 3 mps 682 mmHg 30%
    01:00 +10°C° 0 mm 3 mps 682 mmHg 31%
    02:00 +9°C° 0 mm 3 mps 682 mmHg 32%
    03:00 +9°C° 0 mm 3 mps 682 mmHg 33%
    04:00 +9°C° 0 mm 3 mps 681 mmHg 33%
    05:00 +9°C° 0 mm 3 mps 682 mmHg 33%
    06:00 +9°C° 0 mm 3 mps 682 mmHg 33%
    07:00 +10°C° 0 mm 3 mps 682 mmHg 32%
    08:00 +12°C° 0 mm 3 mps 683 mmHg 29%
    09:00 +14°C° 0 mm 3 mps 683 mmHg 25%
    10:00 +17°C° 0 mm 3 mps 683 mmHg 22%
    11:00 +18°C° 0 mm 4 mps 683 mmHg 20%
    12:00 +19°C° 0 mm 4 mps 683 mmHg 18%
    13:00 +20°C° 0 mm 5 mps 683 mmHg 17%
    14:00 +19°C° 0 mm 5 mps 683 mmHg 17%
    15:00 +19°C° 0 mm 6 mps 683 mmHg 18%
    16:00 +19°C° 0 mm 6 mps 682 mmHg 18%
    17:00 +16°C° 0 mm 5 mps 682 mmHg 21%
    18:00 +15°C° 0 mm 5 mps 683 mmHg 24%
    19:00 +14°C° 0 mm 4 mps 683 mmHg 27%
    20:00 +13°C° 0 mm 4 mps 683 mmHg 28%
    21:00 +12°C° 0 mm 3 mps 683 mmHg 29%
    22:00 +12°C° 0 mm 3 mps 683 mmHg 30%
    23:00 +12°C° 0 mm 3 mps 682 mmHg 31%

    Tomorrow, 20 October, Saturday

    Time Temperature Precipitation Wind Pressure Humidity
    00:00 +12°C° 0 mm 2 mps 682 mmHg 31%
    01:00 +12°C° 0 mm 2 mps 682 mmHg 32%
    02:00 +10°C° 0 mm 2 mps 682 mmHg 32%
    03:00 +10°C° 0 mm 2 mps 682 mmHg 33%
    04:00 +10°C° 0 mm 2 mps 682 mmHg 33%
    05:00 +10°C° 0 mm 2 mps 682 mmHg 32%
    06:00 +12°C° 0 mm 2 mps 682 mmHg 32%
    07:00 +12°C° 0 mm 2 mps 682 mmHg 31%
    08:00 +14°C° 0 mm 1 mps 683 mmHg 26%
    09:00 +16°C° 0 mm 1 mps 683 mmHg 22%
    10:00 +19°C° 0 mm 1 mps 684 mmHg 18%
    11:00 +21°C° 0 mm 1 mps 684 mmHg 17%
    12:00 +21°C° 0 mm 2 mps 683 mmHg 15%
    13:00 +23°C° 0 mm 2 mps 683 mmHg 13%
    14:00 +23°C° 0 mm 2 mps 683 mmHg 13%
    15:00 +21°C° 0 mm 2 mps 683 mmHg 13%
    16:00 +21°C° 0 mm 2 mps 683 mmHg 14%
    17:00 +20°C° 0 mm 2 mps 683 mmHg 16%
    18:00 +18°C° 0 mm 2 mps 682 mmHg 19%
    19:00 +16°C° 0 mm 1 mps 682 mmHg 21%
    20:00 +16°C° 0 mm 1 mps 682 mmHg 22%
    21:00 +15°C° 0 mm 1 mps 682 mmHg 23%
    22:00 +14°C° 0 mm 1 mps 682 mmHg 24%
    23:00 +14°C° 0 mm 1 mps 682 mmHg 24%

    Day after tomorrow, 21 October, Sunday

    Time Temperature Precipitation Wind Pressure Humidity
    00:00 +13°C° 0 mm 1 mps 682 mmHg 24%
    01:00 +13°C° 0 mm 1 mps 681 mmHg 24%
    02:00 +12°C° 0 mm 1 mps 681 mmHg 25%
    03:00 +12°C° 0 mm 1 mps 681 mmHg 25%
    04:00 +12°C° 0 mm 1 mps 681 mmHg 25%
    05:00 +12°C° 0 mm 1 mps 681 mmHg 24%
    06:00 +13°C° 0 mm 1 mps 681 mmHg 23%
    07:00 +14°C° 0 mm 1 mps 682 mmHg 21%
    08:00 +16°C° 0 mm 2 mps 682 mmHg 18%
    09:00 +19°C° 0 mm 2 mps 683 mmHg 15%
    10:00 +21°C° 0 mm 2 mps 684 mmHg 12%
    11:00 +22°C° 0 mm 3 mps 683 mmHg 11%
    12:00 +24°C° 0 mm 3 mps 683 mmHg 11%
    13:00 +25°C° 0 mm 4 mps 683 mmHg 10%
    14:00 +25°C° 0 mm 4 mps 682 mmHg 10%
    15:00 +23°C° 0 mm 4 mps 682 mmHg 11%
    16:00 +24°C° 0 mm 3 mps 682 mmHg 11%
    17:00 +21°C° 0 mm 3 mps 682 mmHg 13%
    18:00 +20°C° 0 mm 2 mps 682 mmHg 15%
    19:00 +19°C° 0 mm 1 mps 681 mmHg 17%
    20:00 +18°C° 0 mm 1 mps 682 mmHg 17%
    21:00 +17°C° 0 mm 2 mps 682 mmHg 18%
    22:00 +16°C° 0 mm 2 mps 682 mmHg 18%
    23:00 +16°C° 0 mm 2 mps 681 mmHg 19%

    22 October, Monday

    Time Temperature Precipitation Wind Pressure Humidity
    00:00 +16°C° 0 mm 2 mps 681 mmHg 20%
    01:00 +16°C° 0 mm 3 mps 681 mmHg 20%
    02:00 +14°C° 0 mm 3 mps 681 mmHg 21%
    03:00 +14°C° 0 mm 3 mps 681 mmHg 21%
    04:00 +14°C° 0 mm 3 mps 681 mmHg 22%
    05:00 +14°C° 0 mm 3 mps 681 mmHg 22%
    06:00 +14°C° 0 mm 3 mps 681 mmHg 22%
    07:00 +16°C° 0 mm 3 mps 681 mmHg 21%
    08:00 +18°C° 0 mm 3 mps 682 mmHg 19%
    09:00 +20°C° 0 mm 3 mps 682 mmHg 17%
    10:00 +24°C° 0 mm 3 mps 683 mmHg 15%
    11:00 +24°C° 0 mm 3 mps 682 mmHg 15%
    12:00 +25°C° 0 mm 3 mps 682 mmHg 15%
    13:00 +26°C° 0 mm 3 mps 681 mmHg 14%
    14:00 +26°C° 0 mm 3 mps 681 mmHg 15%
    15:00 +26°C° 0 mm 3 mps 681 mmHg 15%
    16:00 +26°C° 0 mm 3 mps 681 mmHg 15%
    17:00 +24°C° 0 mm 2 mps 680 mmHg 18%
    18:00 +21°C° 0 mm 2 mps 680 mmHg 20%
    19:00 +21°C° 0 mm 1 mps 680 mmHg 22%
    20:00 +20°C° 0 mm 1 mps 680 mmHg 23%
    21:00 +19°C° 0 mm 2 mps 680 mmHg 23%
    22:00 +19°C° 0 mm 2 mps 680 mmHg 24%
    23:00 +18°C° 0 mm 2 mps 680 mmHg 24%

    23 October, Tuesday

    Time Temperature Precipitation Wind Pressure Humidity
    00:00 +18°C° 0 mm 2 mps 680 mmHg 25%
    01:00 +18°C° 0 mm 2 mps 679 mmHg 26%
    02:00 +17°C° 0 mm 2 mps 679 mmHg 26%
    03:00 +17°C° 0 mm 2 mps 679 mmHg 27%
    04:00 +17°C° 0 mm 3 mps 679 mmHg 28%
    05:00 +17°C° 0 mm 3 mps 679 mmHg 27%
    06:00 +18°C° 0 mm 2 mps 680 mmHg 27%
    07:00 +18°C° 0 mm 2 mps 680 mmHg 26%
    08:00 +20°C° 0 mm 2 mps 680 mmHg 24%
    09:00 +23°C° 0 mm 2 mps 681 mmHg 22%
    10:00 +24°C° 0 mm 2 mps 681 mmHg 20%
    11:00 +25°C° 0 mm 1 mps 681 mmHg 21%
    12:00 +25°C° 0 mm 1 mps 681 mmHg 21%
    13:00 +25°C° 0 mm 1 mps 680 mmHg 21%
    14:00 +25°C° 0 mm 1 mps 680 mmHg 22%
    15:00 +25°C° 0 mm 2 mps 680 mmHg 23%
    16:00 +25°C° 0 mm 2 mps 680 mmHg 24%
    17:00 +24°C° 0 mm 3 mps 680 mmHg 26%
    18:00 +21°C° 0 mm 3 mps 680 mmHg 29%
    19:00 +20°C° 0 mm 3 mps 680 mmHg 32%
    20:00 +19°C° 0 mm 3 mps 680 mmHg 32%
    21:00 +19°C° 0 mm 3 mps 681 mmHg 32%
    22:00 +18°C° 0 mm 2 mps 681 mmHg 32%
    23:00 +18°C° 0 mm 2 mps 680 mmHg 32%

    24 October, Wednesday

    Time Temperature Precipitation Wind Pressure Humidity
    00:00 +17°C° 0 mm 2 mps 680 mmHg 32%
    01:00 +17°C° 0 mm 2 mps 680 mmHg 33%
    02:00 +16°C° 0 mm 2 mps 680 mmHg 34%
    03:00 +16°C° 0 mm 2 mps 679 mmHg 35%
    04:00 +16°C° 0 mm 2 mps 679 mmHg 36%
    05:00 +16°C° 0 mm 2 mps 680 mmHg 35%
    06:00 +16°C° 0 mm 2 mps 680 mmHg 35%
    07:00 +16°C° 0 mm 2 mps 680 mmHg 35%
    08:00 +18°C° 0 mm 2 mps 681 mmHg 31%
    09:00 +20°C° 0 mm 2 mps 681 mmHg 28%
    10:00 +23°C° 0 mm 2 mps 681 mmHg 25%
    11:00 +24°C° 0 mm 2 mps 681 mmHg 24%
    12:00 +24°C° 0 mm 3 mps 680 mmHg 23%
    13:00 +25°C° 0 mm 3 mps 680 mmHg 22%
    14:00 +25°C° 0 mm 3 mps 680 mmHg 21%
    15:00 +25°C° 0 mm 3 mps 680 mmHg 21%
    16:00 +25°C° 0 mm 4 mps 679 mmHg 21%
    17:00 +22°C° 0 mm 3 mps 679 mmHg 23%
    18:00 +21°C° 0 mm 3 mps 679 mmHg 24%
    19:00 +20°C° 0 mm 3 mps 679 mmHg 26%
    20:00 +19°C° 0 mm 3 mps 679 mmHg 27%
    21:00 +18°C° 0 mm 2 mps 679 mmHg 28%
    22:00 +18°C° 0 mm 2 mps 679 mmHg 29%
    23:00 +17°C° 0 mm 2 mps 679 mmHg 30%
    Show more